Location: Alphen
(52.1351°N, 4.6549°E)
Time: 01:57:54
(UTC+00:00)

USA 215 - Pass Details

Date: 27 January 2021
Orbit: 1103 x 1105 km, 123.0° (Epoch: 14 February)

Event Time Altitude Azimuth Distance (km) Brightness Sun altitude
Rises 04:32:44 0° 67° (ENE) 3,927 7.3 -26.9°
Reaches altitude 10° 04:35:13 10° 65° (ENE) 2,968 6.4 -26.5°
Maximum altitude 04:41:43 69° 344° (NNW) 1,176 3.3 -25.5°
Enters shadow 04:43:19 52° 284° (WNW) 1,355 3.3 -25.2°
